Terminal Aerodrome Forecast
Issued by NWS Knoxville/Tri Cities, TN

Home | Current Version | Previous Version | Text Only | Print | Product List | Glossary On
Versions: 1 2 3 4 5 6 7 8 9 10 11 12 13 14 15 16 17 18 19 20 21 22 23 24 25 26 27 28 29 30 31 32 33 34 35 36 37 38 39 40
000
FTUS44 KMRX 231120
TAFTRI
TAF
KTRI 231120Z 2312/2412 00000KT P6SM SCT030 OVC200
      TEMPO 2312/2315 -RA OVC035
     FM231500 VRB03KT P6SM VCSH BKN025
     FM240000 VRB02KT P6SM OVC050
     FM240600 00000KT 4SM BR OVC020=

USA.gov is the U.S. government's official web portal to all federal, state and local government web resources and services.